Goodland, KS

8:47 AM MST on January 24, 2017 (GMT -0700)
Renner-Goodland Municipal

Weather History for KGLD - November, 2013

Change the Weather History Date:

Monday, November 18, 2013

  Actual Average Record
Temperature  
Mean Temperature 42 °F 38 °F  
Max Temperature 59 °F 51 °F 77 °F (1995)
Min Temperature 25 °F 25 °F 11 °F (1937)
Degree Days  
Heating Degree Days 23 27  
Month to date heating degree days 395 416  
Since 1 July heating degree days 906 956  
Cooling Degree Days 0 0  
Month to date cooling degree days 0 0  
Year to date cooling degree days 1181 941  
Moisture  
Dew Point 13 °F    
Average Humidity 36    
Maximum Humidity 55    
Minimum Humidity 17    
Precipitation  
Precipitation 0.00 in 0.02 in 0.44 in (2004)
Month to date precipitation 0.16 0.48  
Year to date precipitation 16.68 18.97  
Snow  
Snow 0.00 in 0.10 in - ()
Month to date snowfall T 2.5  
Since 1 July snowfall 4.0 5.1  
Since 1 September snowfall 4.0 5.1  
Snow Depth 0.00 in    
Sea Level Pressure  
Sea Level Pressure 30.16 in    
Wind  
Wind Speed 14 mph (SSW)    
Max Wind Speed 29 mph    
Max Gust Speed 36 mph    
Visibility 10 miles    
Events      
T = Trace of Precipitation, MM = Missing Value Source: NWS Daily Summary

Daily Weather History Graph

Daily Weather History Graph

Search for Another Location

Airport or City:

Trip Planner

Search our weather history database for the weather conditions in past years. The results will help you decide how hot, cold, wet, or windy it might be!

Date:

Astronomy

Nov. 18, 2013 Rise Set
Actual Time 6:34 AM MST 4:29 PM MST
Civil Twilight 6:05 AM MST 4:58 PM MST
Nautical Twilight 5:32 AM MST 5:31 PM MST
Astronomical Twilight 5:00 AM MST 6:02 PM MST
Moon 5:33 PM MST (11/18) 7:24 AM MST (11/18)
Length of Visible Light 10h 53m
Length of Day
9h 55m
Full, 99% of the Moon is Illuminated
Nov 18
Full
Nov 25
Last Quarter
Dec 2
New
Dec 9
First Quarter
Dec 17
Full

Hourly Weather History & Observations

Time (MST) Temp. Windchill Dew Point Humidity Pressure Visibility Wind Dir Wind Speed Gust Speed Precip Events Conditions
12:53 AM 30.0 °F 21.1 °F 10.9 °F 45% 30.15 in 10.0 mi SW 10.4 mph - N/A   Clear
1:53 AM 30.0 °F 21.1 °F 10.9 °F 45% 30.17 in 10.0 mi SW 10.4 mph - N/A   Clear
2:53 AM 30.9 °F 21.2 °F 10.0 °F 42% 30.17 in 10.0 mi SW 12.7 mph - N/A   Clear
3:53 AM 30.9 °F 22.8 °F 10.0 °F 42% 30.18 in 10.0 mi WSW 9.2 mph - N/A   Clear
4:53 AM 30.9 °F 22.2 °F 10.0 °F 42% 30.23 in 10.0 mi SW 10.4 mph - N/A   Clear
5:53 AM 33.1 °F 23.0 °F 10.0 °F 38% 30.22 in 10.0 mi SW 15.0 mph - N/A   Clear
6:53 AM 33.1 °F 23.0 °F 10.0 °F 38% 30.25 in 10.0 mi SW 15.0 mph - N/A   Clear
7:53 AM 39.0 °F 29.6 °F 10.9 °F 32% 30.25 in 10.0 mi SSW 18.4 mph - N/A   Clear
8:53 AM 46.9 °F - 10.0 °F 22% 30.23 in 10.0 mi SSW 16.1 mph 27.6 mph N/A   Clear
9:53 AM 50.0 °F - 9.0 °F 19% 30.23 in 10.0 mi SSW 26.5 mph 35.7 mph N/A   Clear
10:53 AM 53.1 °F - 10.9 °F 19% 30.20 in 10.0 mi South 25.3 mph 33.4 mph N/A   Clear
11:53 AM 55.0 °F - 12.0 °F 18% 30.17 in 10.0 mi SSW 25.3 mph 29.9 mph N/A   Clear
12:53 PM 57.9 °F - 14.0 °F 18% 30.12 in 10.0 mi SW 19.6 mph 28.8 mph N/A   Clear
1:53 PM 59.0 °F - 15.1 °F 18% 30.12 in 10.0 mi SW 17.3 mph - N/A   Clear
2:53 PM 57.9 °F - 15.1 °F 19% 30.10 in 10.0 mi SSW 10.4 mph - N/A   Clear
3:53 PM 55.0 °F - 17.1 °F 23% 30.09 in 10.0 mi South 8.1 mph - N/A   Clear
4:53 PM 39.9 °F 34.5 °F 17.1 °F 40% 30.13 in 10.0 mi South 8.1 mph - N/A   Clear
5:53 PM 36.0 °F 28.5 °F 16.0 °F 44% 30.14 in 10.0 mi South 10.4 mph - N/A   Clear
6:53 PM 36.0 °F 27.5 °F 16.0 °F 44% 30.13 in 10.0 mi South 12.7 mph - N/A   Clear
7:53 PM 35.1 °F 26.9 °F 16.0 °F 46% 30.13 in 10.0 mi South 11.5 mph - N/A   Clear
8:53 PM 34.0 °F 25.0 °F 17.1 °F 50% 30.11 in 10.0 mi South 12.7 mph - N/A   Clear
9:53 PM 32.0 °F 22.5 °F 16.0 °F 52% 30.11 in 10.0 mi South 12.7 mph - N/A   Clear
10:53 PM 34.0 °F 24.6 °F 16.0 °F 48% 30.08 in 10.0 mi South 13.8 mph - N/A   Clear
11:53 PM 34.0 °F 25.0 °F 17.1 °F 50% 30.06 in 10.0 mi South 12.7 mph - N/A   Clear